Location: Ockley
(51.1333°N, 0.3500°W)
Time: 18:47:57
(UTC+00:00)

Daily predictions for brighter satellites

Satellite Brightness Start Highest point End
(mag) Time Altitude Azimuth Time Altitude Azimuth Time Altitude Azimuth
SPOT 1/Viking Rocket 3.6 18:48:57 10° SSE 18:54:06 70° ENE 18:59:15 10° N
TRACE 4.3 18:55:10 10° NNE 18:58:35 68° ESE 19:01:57 10° S
Cosmos 1400 Rocket 2.8 18:55:09 10° N 18:58:58 56° ENE 19:02:42 10° SSE
Cosmos 2322 4.0 18:53:57 10° S 18:59:15 44° ESE 19:04:36 10° NE
Cosmos 1066 Rocket 4.4 18:54:00 10° N 18:59:52 67° ENE 19:05:41 10° SSE
USA 59 Rocket -0.1 18:57:51 10° NW 19:01:28 74° NE 19:06:23 10° SE
Cosmos 1943 Rocket 2.9 18:59:36 10° NNW 19:04:42 37° NE 19:09:47 10° ESE
CZ-4B R/B 3.4 19:00:43 10° SSE 19:05:28 89° WSW 19:10:19 10° NNW
Cosmos 1725 Rocket 4.3 18:59:25 10° SSW 19:05:35 75° WNW 19:11:49 10° N
Cosmos 2333 4.5 19:01:55 10° SW 19:07:43 78° WNW 19:13:30 10° NNE
ACS3 Solar Sail 2.6 19:03:30 10° SE 19:09:15 37° ENE 19:15:01 10° N
Cosmos 1315 Rocket 4.4 19:07:26 10° NNE 19:10:15 18° ENE 19:12:48 11° ESE
USA 267 3.8 19:04:23 10° ENE 19:10:42 54° N 19:17:03 10° WNW
Cosmos 1328 Rocket 3.5 19:07:25 10° N 19:11:42 62° ENE 19:15:57 10° SSE
Helios 1A 3.0 19:09:16 10° NNE 19:13:17 54° E 19:17:15 10° S
Meteor 1-4 Rocket 2.1 19:13:28 10° N 19:16:05 45° ENE 19:18:40 10° SSE
Cosmos 1536 3.8 19:16:41 10° SE 19:19:49 25° E 19:23:00 10° NNE
NOSS 2-1 (C) 3.5 19:16:39 10° NW 19:20:17 79° SW 19:25:12 10° SE
COSMOS 2428 2.8 19:15:36 10° S 19:21:07 53° ESE 19:26:42 10° NE
USA 290 2.4 19:19:15 10° NNW 19:22:30 55° ENE 19:25:26 12° SE
SKYMED 3 4.4 19:19:13 10° NNE 19:23:22 80° ESE 19:27:29 10° SSW
Cosmos 1726 1.7 19:22:24 10° SSW 19:25:12 70° WNW 19:28:00 10° N
CARTOSAT-1 3.5 19:21:45 10° SSE 19:25:56 65° ENE 19:30:10 10° N
CZ-4 R/B 1.3 19:22:18 10° SSE 19:26:07 85° WSW 19:30:01 10° NNW
Nadezhda 4 Rocket 4.4 19:20:54 10° N 19:26:52 44° ENE 19:32:51 10° SE
BlueWalker 3 2.7 19:23:52 10° WNW 19:27:27 43° SSW 19:30:35 13° SE
ISS -1.8 19:26:03 10° S 19:27:44 13° SE 19:27:44 13° SE
SPOT 5 3.8 19:27:16 14° ESE 19:30:19 27° ENE 19:34:06 10° N
Cosmos 2233 Rocket 4.3 19:24:45 10° SSW 19:30:53 72° WNW 19:37:04 10° N
Cosmos 1674 2.6 19:28:09 10° NNW 19:31:30 71° W 19:34:48 10° S
USA 186 1.7 19:29:22 10° SSE 19:32:34 80° ENE 19:35:50 10° N
Cosmos 2278 Rocket 2.2 19:29:31 10° NNW 19:35:13 76° ENE 19:40:33 12° SE
Cosmos 1733 3.8 19:34:15 12° SSE 19:36:52 29° E 19:39:54 10° NNE
Cosmos 1513 Rocket 4.5 19:31:50 10° S 19:37:46 60° E 19:43:45 10° NNE
USA 306 2.6 19:35:56 10° SW 19:38:59 46° SSE 19:41:33 16° ENE
SeaSat 1 4.4 19:36:31 10° NNE 19:40:50 32° NW 19:45:09 10° WSW
NOSS 0 Rocket 4.1 19:35:11 10° S 19:41:07 48° ESE 19:47:04 10° NE
CZ-4B R/B 3.2 19:36:07 10° SSE 19:41:36 85° ENE 19:47:01 10° NNW
PAYLOAD B 4.5 19:36:01 10° S 19:41:36 76° WSW 19:47:15 10° NNW
Cosmos 1842 3.0 19:39:15 10° NNW 19:42:53 85° W 19:46:30 10° S
Cosmos 1464 Rocket 4.2 19:37:52 10° SSE 19:43:57 53° E 19:50:07 10° NNE
Iridium 4 Rocket 3.9 19:40:03 10° NNW 19:44:07 50° W 19:48:07 10° SSW
SL-08 R/B 3.9 19:40:50 10° N 19:45:43 63° WNW 19:50:34 10° SSW
Aureole 3 Rocket 4.5 19:41:05 10° SSE 19:47:10 33° E 19:51:47 10° NNE
Lacrosse 4 Rocket 3.3 19:45:22 10° NW 19:49:08 29° WSW 19:52:50 10° S
CZ-4B R/B 3.7 19:45:26 10° S 19:49:10 50° W 19:53:06 10° NNW
Cosmos 1356 Rocket 3.4 19:45:33 10° NNW 19:49:46 89° ENE 19:53:57 10° SSE
Sich 1 4.0 19:49:03 22° ESE 19:50:18 26° E 19:53:53 10° NNE
USA 276 2.2 19:49:32 10° W 19:52:17 47° SSW 19:53:02 34° SSE
MOS 1 Rocket 4.2 19:49:57 21° ESE 19:52:44 36° ENE 19:57:31 10° N
Meteor 1-14 Rocket 4.1 19:47:33 10° S 19:53:04 82° E 19:58:39 10° NNE
Cosmos 1707 2.6 19:50:09 10° NNW 19:53:42 77° W 19:57:10 11° S
Okean 3 Rocket 3.5 19:49:23 10° S 19:53:48 64° E 19:58:13 10° NNE
Cosmos 2360 Rocket 4.1 19:49:24 10° WSW 19:54:27 32° NW 19:59:31 10° NNE
NOSS 2-1 (E) 4.4 19:53:19 10° NW 19:56:59 44° SW 20:01:14 13° SSE
Meteor 1-11 Rocket 3.9 19:52:30 10° SSE 19:57:54 50° E 20:03:16 10° NNE
Okean O Rocket 1.5 19:54:50 14° SSE 19:58:33 79° ENE 20:03:00 10° NNW
ERS-1 Rocket 3.8 19:56:18 22° ESE 19:58:34 33° ENE 20:03:03 10° N
MetOp-B 4.5 19:56:35 21° SE 19:59:54 48° ENE 20:05:04 10° N
Cosmos 1515 Rocket 3.5 19:57:21 10° N 20:01:43 89° WSW 20:05:32 13° S
Ariane Rocket 4.3 20:00:30 20° E 20:02:15 24° ENE 20:06:15 10° N
PSLV R/B 3.5 20:01:54 29° SE 20:03:31 61° ENE 20:07:02 10° N
Cosmos 2034 Rocket 4.1 19:58:52 10° SSE 20:04:50 51° E 20:10:47 10° NNE
Cosmos 2237 Rocket 2.3 19:59:48 10° S 20:05:10 48° ESE 20:10:34 10° NE
Cosmos 1125 Rocket 3.4 19:59:58 10° NNW 20:05:12 83° ENE 20:08:40 22° SSE
Cosmos 1818 4.1 20:00:09 10° SW 20:05:34 63° NW 20:11:03 10° NE
Cosmos 1072 Rocket 4.5 20:02:22 10° S 20:08:47 82° E 20:15:13 10° NNE
Resurs 01 Rocket 2.5 20:04:58 10° S 20:09:16 49° W 20:13:36 10° NNW
Meteor 2-10 4.1 20:05:25 10° S 20:10:56 67° E 20:16:37 10° NNE
Cosmos 2228 Rocket 4.3 20:08:16 10° N 20:12:07 26° ENE 20:12:48 25° E
CSL-04 Rocket 4.0 20:07:25 10° S 20:12:44 63° WSW 20:18:01 10° NNW
Cosmos 2219 Rocket 3.7 20:07:46 10° WSW 20:13:06 39° NW 20:18:25 10° NNE
Okean-O 2.5 20:17:13 30° SSE 20:19:21 76° ENE 20:23:47 10° NNW
ATLAS 2AS CENTAUR R/B 4.3 20:14:11 10° WNW 20:20:28 32° NNW 20:26:33 10° NE
Cosmos 1500 Rocket 3.6 20:18:47 30° SSE 20:20:41 54° E 20:24:58 10° NNE
Cosmos 2333 Rocket 4.5 20:18:16 10° W 20:23:01 26° NW 20:27:47 10° NNE
SPOT 3 Rocket 4.4 20:23:20 29° E 20:24:40 33° ENE 20:29:15 10° N
Cosmos 1743 Rocket 3.7 20:25:53 43° ESE 20:26:30 47° E 20:30:40 10° NNE
IRS-1A Rocket 4.3 20:26:12 31° SE 20:29:01 65° ENE 20:34:41 10° N
Terra 2.1 20:31:45 41° ESE 20:32:50 50° ENE 20:37:23 10° N
Cosmos 2369 Rocket 3.0 20:28:30 10° NNW 20:33:49 37° NE 20:35:42 29° E
Cosmos 1980 3.6 20:28:38 10° SSW 20:34:19 81° ESE 20:40:02 10° NNE
Cosmos 2208 Rocket 4.0 20:29:55 10° S 20:35:03 59° ESE 20:40:19 10° NNE
Cosmos 1408 Rocket 3.5 20:32:57 15° SSW 20:36:29 83° W 20:40:56 10° N
BREEZE-M DEB (TANK) 4.0 20:33:43 10° W 20:36:58 72° S 20:39:47 34° ESE
NOSS 3-3 (C) 3.9 20:39:10 10° SSW 20:44:20 48° ESE 20:50:24 10° NE
Cosmos 1315 Rocket 3.5 20:42:45 10° NNW 20:46:37 51° W 20:48:00 33° SSW
Cosmos 1975 3.5 20:48:45 40° NE 20:48:45 40° NE 20:51:32 10° NNE
Cosmos 1943 Rocket 2.8 20:43:19 10° NW 20:48:36 49° WSW 20:51:28 25° S
USA 59 Rocket 2.3 20:47:53 10° WNW 20:50:51 19° WSW 20:53:43 12° SSW
ACS3 Solar Sail 2.6 20:47:14 12° S 20:53:07 52° W 20:59:24 10° NNW
USA 267 3.4 20:50:07 32° E 20:53:20 69° NNE 20:59:50 10° WNW
NOSS 3-3 (A) 3.7 20:54:16 10° SSW 20:59:36 63° SE 21:05:56 10° NE
Cosmos 1805 Rocket 3.7 20:59:57 43° SSW 21:01:16 71° WNW 21:05:37 10° N
CRYOSAT 2 4.4 20:56:22 10° N 21:01:17 79° W 21:03:01 41° SSW
ISS -0.9 21:00:42 10° SW 21:00:45 10° SW 21:00:45 10° SW
SL-16 R/B 2.8 21:05:28 38° ENE 21:05:28 38° ENE 21:09:29 10° NE
BREEZE-M DEB (TANK) 4.4 21:02:30 10° W 21:03:10 19° W 21:03:10 19° W
COSMOS 2428 4.3 21:00:22 10° WSW 21:05:37 36° NW 21:10:54 10° NNE
SL-14 R/B 3.7 21:02:09 10° NNW 21:05:52 52° W 21:06:01 52° WSW
Spot 2 Rocket 3.3 21:07:26 67° SSE 21:08:08 84° ENE 21:13:12 10° NNW
SPOT 5 3.7 21:06:25 30° SSW 21:08:11 44° W 21:12:30 10° NNW
USA 306 3.5 21:08:07 10° W 21:10:38 43° WNW 21:10:38 43° WNW
Cosmos 1862 Rocket 3.7 21:07:44 10° N 21:11:44 65° NE 21:11:44 65° NE
Cosmos 1633 Rocket 4.3 21:14:04 30° NE 21:14:04 30° NE 21:16:33 10° NNE
Cosmos 1805 4.0 21:13:09 45° W 21:13:18 45° WNW 21:16:51 10° N
Cosmos 1707 Rocket 3.6 21:12:24 10° N 21:16:36 78° N 21:16:36 78° N
Cosmos 2263 4.5 21:11:46 10° NNW 21:17:25 53° NE 21:18:03 50° ENE
Cosmos 1092 Rocket 4.4 21:11:47 10° NNW 21:18:01 63° W 21:20:56 32° SSW
Cosmos 2278 Rocket 4.2 21:14:31 10° NW 21:18:41 21° W 21:22:24 12° SW
Cosmos 2026 Rocket 4.4 21:14:13 10° NNW 21:20:21 58° W 21:23:11 32° SSW
Cosmos 158 Rocket 4.5 21:16:40 10° SW 21:21:26 53° WNW 21:26:14 10° NNE
Cosmos 2266 Rocket 4.2 21:15:36 10° N 21:21:39 50° ENE 21:22:08 49° E
NOSS 3-4 (A) 3.7 21:15:42 10° NW 21:22:23 81° NE 21:24:21 53° ESE
NOSS 3-4 (C) 3.7 21:15:49 10° NW 21:22:29 81° NE 21:24:27 53° ESE
Cosmos 1666 Rocket 4.4 21:24:30 42° NNE 21:24:30 42° NNE 21:27:28 10° NNE
Cosmos 1656 Rocket 3.5 21:17:27 10° NNW 21:23:10 88° WSW 21:23:46 73° SSE
Sich 1 4.3 21:25:41 25° WSW 21:27:32 37° WNW 21:31:34 10° N
Cosmos 1634 Rocket 4.1 21:31:43 37° SSW 21:34:23 73° WNW 21:40:45 10° N
Okean O Rocket 4.3 21:32:58 10° WSW 21:35:23 14° W 21:37:47 10° NW
ERS-1 Rocket 3.9 21:36:13 37° SW 21:37:13 42° W 21:42:00 10° NNW
Ariane Rocket 3.2 21:40:38 62° WSW 21:40:47 63° WSW 21:45:51 10° NNW
Cosmos 2237 Rocket 3.5 21:44:09 10° WSW 21:49:23 38° NW 21:54:37 10° NNE
Cosmos 2228 Rocket 4.1 21:46:06 10° NNW 21:50:13 42° W 21:50:13 42° W
Cosmos 2297 3.9 21:50:08 10° NW 21:55:35 60° WSW 21:55:35 60° WSW
Cosmos 2142 Rocket 4.3 21:55:44 78° SW 21:56:08 84° W 22:02:20 10° N
Cosmos 1655 Rocket 4.1 21:51:32 10° N 21:57:43 61° ENE 21:57:43 61° ENE
ARIANE 5 R/B 4.3 22:02:05 27° NNE 22:02:05 27° NNE 22:04:24 10° N
SPOT 3 Rocket 4.3 22:03:57 43° W 22:03:57 43° W 22:08:51 10° NNW
SL-08 ROCKET BODY 4.4 22:01:30 10° N 22:07:39 83° W 22:07:39 83° W
BREEZE-M DEB (TANK) 3.7 21:56:29 10° W 22:07:15 57° WSW 22:07:15 57° WSW
Cosmos 2180 Rocket 4.5 22:09:46 75° WSW 22:10:11 78° WNW 22:16:36 10° N
Terra 3.6 22:10:26 24° W 22:10:40 24° W 22:14:31 10° NW
Okean 1-7 4.5 22:06:39 10° NNW 22:09:24 36° NW 22:09:24 36° NW
ATLAS 2AS CENTAUR R/B 4.1 22:07:08 10° NW 22:13:19 32° NNE 22:17:27 18° ENE
Cosmos 2369 Rocket 2.8 22:12:30 10° NW 22:17:27 49° W 22:17:27 49° W
Cosmos 1607 4.3 22:34:25 52° W 22:35:45 64° NW 22:42:10 10° NE
USA 267 3.6 22:37:27 54° WSW 22:37:27 54° WSW 22:42:56 10° WNW
SL-16 R/B 3.3 22:47:17 38° WNW 22:48:18 41° NW 22:53:40 10° NNE
Cosmos 1943 4.2 23:12:26 42° NNE 23:12:26 42° NNE 23:16:15 10° NNE
Cosmos 1697 Rocket 4.0 23:20:43 10° NNW 23:25:18 35° NNE 23:25:18 35° NNE
USA 215 3.4 23:36:45 10° ENE 23:43:14 67° NNW 23:43:14 67° NNW
Cosmos 2344 3.8 23:39:25 10° NW 23:47:32 86° SW 23:48:12 80° SSE
ATLAS CENTAUR R/B 4.4 23:48:13 12° N 23:48:13 12° N 23:49:27 10° NNE
